Regional Weather Roundup
Issued by NWS

Home | Current Version | Previous Version | Graphics & Text | Print | Product List | Glossary On
Versions: 1 2 3 4 5 6 7 8 9 10 11 12 13 14 15 16 17 18 19 20 21 22 23 24 25 26 27 28 29 30 31 32 33 34 35 36 37 38 39 40 41 42 43 44 45 46 47 48 49 50
000
ASUS45 KCYS 162010
RWRWY

WYOMING REGIONAL WEATHER ROUNDUP
NATIONAL WEATHER SERVICE CHEYENNE WY
100 PM MST FRI FEB 16 2018

NOTE:  "FAIR" INDICATES FEW OR NO CLOUDS BELOW 12,000 FEET
WITH NO SIGNIFICANT WEATHER AND/OR OBSTRUCTIONS TO VISIBILITY.

WYZ001-162100-
YELLOWSTONE NATIONAL PARK

CITY           SKY/WX    TMP DP  RH WIND       PRES   REMARKS
LK YELLOWSTONE   N/A     14   8  77 VRB3      29.97F
W YELLOWSTONE  NOT AVBL

$$
WYZ002>013-054>058-071-098>099-162100-
NORTHERN WYOMING

CITY           SKY/WX    TMP DP  RH WIND       PRES   REMARKS
JACKSON        LGT SNOW  21  14  73 S18       30.04F VSB 1   WCI   6
CODY           CLOUDY    33   7  33 W16G25    29.90F WCI  23
GREYBULL       FAIR      18   9  68 SW6       29.97F WCI  10
WORLAND        FAIR      15  10  80 S3        29.95F
SHERIDAN       PTSUNNY   29  11  47 CALM      29.88F
BUFFALO        FAIR      33   5  30 E5        29.86F WCI  29
GILLETTE       FAIR      32  15  49 W9        29.88F WCI  24
HULETT         FAIR      30  10  43 SW12      29.90F WCI  21
NEWCASTLE      FAIR      30  10  43 CALM      29.95F

$$
WYZ014>020-022>026-101>103-162100-
CENTRAL WYOMING

CITY           SKY/WX    TMP DP  RH WIND       PRES   REMARKS
BIG PINEY      CLOUDY    26   3  37 VRB6      30.04F WCI  19
PINEDALE       CLOUDY    23   7  50 N5        30.05F WCI  17
DUBOIS           N/A    N/A N/A N/A MISG        N/A
LANDER         FAIR      28  12  51 SE3       29.91F
RIVERTON       FAIR      27   7  42 S6        29.92F WCI  20
CASPER         FAIR      36  11  35 SW32G43   29.89F WCI  23
DOUGLAS        FAIR      39  14  36 W22G33    29.90F WCI  29

$$
WYZ021-027>030-104>119-162100-
SOUTHERN WYOMING

CITY           SKY/WX    TMP DP  RH WIND       PRES   REMARKS
EVANSTON       FAIR      29   9  43 SW20G26   30.10F WCI  16
FORT BRIDGER   FAIR      31   8  37 W20G26    30.12F WCI  19
ROCK SPRINGS   FAIR      32   5  32 SW20G31   30.06F WCI  20
DIXON          FAIR      26  13  57 SW13      30.16F WCI  15
RAWLINS        FAIR      29   8  41 SW24G33   30.03F WCI  15
SARATOGA       CLOUDY    30   9  40 SW9       30.05F WCI  22
LARAMIE        FAIR      30  10  43 SW28G35   29.95F WCI  15
CHEYENNE       FAIR      35  16  45 S14       29.97F WCI  26
TORRINGTON     FAIR      39  20  46 S15       29.98F WCI  31
PINE BLUFFS    FAIR      36  19  51 MISG      30.01F

$$



USA.gov is the U.S. government's official web portal to all federal, state and local government web resources and services.